{"data":{"norad_id":57850,"intl_designator":"2023-141L","name":"STARLINK-30425","alt_names":[],"object_type":"PAYLOAD","status":"ACTIVE","operator":null,"country":"US","launch_date":"2023-09-12","launch_site_code":"AFWTR","launch_vehicle":null,"mission":null,"orbit_class":"UNKNOWN","rcs_meters":null,"size_class":null,"mass_kg":null,"dimensions":null,"purposes":["comms"],"wikipedia_slug":null,"has_3d_model":false,"image_url":null,"decayed_at":null,"tle_current":{"epoch":"2026-05-25T02:35:43.556064Z","epoch_age_seconds":66527,"freshness":"FRESH","line1":"1 57850U 23141L   26145.10814301  .00001809  00000+0  73228-4 0  9995","line2":"2 57850  53.1617 289.2412 0001341  78.4387 281.6765 15.30183926152027","mean_motion":15.30183926,"eccentricity":0.0001341,"inclination_deg":53.1617,"raan_deg":289.2412,"arg_perigee_deg":78.4387,"mean_anomaly_deg":281.6765,"bstar":7.3228e-5,"rev_number":15202,"period_min":94.106334247299,"perigee_km":474.34402295753,"apogee_km":476.18210485467,"semimajor_km":6853.4000639061,"source":"CELESTRAK","updated_at":"2026-05-25T13:38:18.415038Z"}}}